Regional Weather Roundup
Issued by NWS

Home | Current Version | Previous Version | Graphics & Text | Print | Product List | Glossary On
Versions: 1 2 3 4 5 6 7 8 9 10 11 12 13 14 15 16 17 18 19 20 21 22 23 24 25 26 27 28 29 30 31 32 33 34 35 36 37 38 39 40 41 42 43 44 45 46 47 48 49 50
923
ASUS43 KDMX 221701
RWRIA

WEATHER ROUNDUP FOR IOWA
NATIONAL WEATHER SERVICE DES MOINES IA
1200 PM CDT FRI SEP 22 2017

NOTE: "FAIR" INDICATES FEW OR NO CLOUDS BELOW 12,000 FEET WITH NO
SIGNIFICANT WEATHER AND/OR OBSTRUCTIONS TO VISIBILITY.

* - THESE STATIONS ARE NOT NWS STATIONS...THUS NOT UNDER NWS
QUALITY CONTROL.  THEY ALSO DO NOT REPORT WEATHER SUCH
AS PRECIPITATION OR FOG.

IAZ001>003-012>014-020>022-031>034-043>046-221800-
   NORTHWEST IOWA

CITY           SKY/WX    TMP DP  RH WIND       PRES   REMARKS
CARROLL *      SUNNY     90  72  55 S20G26    29.87F HX  96
CHEROKEE *     SUNNY     85  72  65 S20G26    29.82F HX  90
DENISON *      SUNNY     86  70  58 S21G31    29.86F HX  90
LE MARS *      SUNNY     86  70  58 S24G31    29.77F HX  90
ORANGE CITY *  SUNNY     86  72  62 S21       29.79S HX  92
SHELDON *      SUNNY     86  70  58 S16G28    29.78F HX  90
SIOUX CITY     SUNNY     86  71  60 S21G28    29.79S HX  91
SPENCER        SUNNY     87  69  54 S20G29    29.82F HX  91
STORM LAKE *   SUNNY     88  70  55 S21G29    29.84F HX  92
$$

IAZ055>058-069>071-079>083-090>094-221800-
   SOUTHWEST IOWA

CITY           SKY/WX    TMP DP  RH WIND       PRES   REMARKS
ATLANTIC *     SUNNY     86  72  62 S16G24    29.89S HX  92
AUDUBON *      SUNNY     86  73  66 S16       29.90F HX  93
CLARINDA *     SUNNY     88  72  58 S17G23    29.93F HX  94
COUNCIL BLFS * SUNNY     88  73  62 S22G29    29.86F HX  96
CRESTON *      SUNNY     84  72  65 S16G23    29.97S HX  89
HARLAN  *      SUNNY     88  70  55 S20G26    29.90F HX  92
LAMONI         SUNNY     85  71  63 S16G25    29.98S HX  90
RED OAK *      MOSUNNY   88  72  58 S17G24    29.89F HX  94
SHENANDOAH *   SUNNY     88  72  58 S16G24    29.89F HX  94
$$

IAZ047>049-059>061-072>074-084-221800-
   CENTRAL IOWA

CITY           SKY/WX    TMP DP  RH WIND       PRES   REMARKS
AMES           SUNNY     86  73  65 S15       29.93F HX  93
ANKENY *       SUNNY     86  72  62 S15       29.94F HX  92
BOONE *        SUNNY     86  70  58 S9G23     29.92S HX  90
CHARITON *     SUNNY     86  72  62 S17G26    29.97F HX  92
DES MOINES     MOSUNNY   87  70  56 S21       29.94S HX  92
GRINNELL*      SUNNY     86  68  55 S16G24    30.00S HX  89
KNOXVILLE *    SUNNY     86  70  58 S16G22    29.96F HX  90
MARSHALLTOWN   SUNNY     87  71  58 S13G25    29.95F HX  93
NEWTON *       SUNNY     86  70  58 S18G25    29.97S HX  90
PELLA *        SUNNY     87  69  54 S15       29.99S HX  91
PERRY *          N/A     89  72  56 S13G22    29.92S HX  95
$$

IAZ004>006-015-016-023>025-035-036-221800-
   NORTH CENTRAL IOWA

CITY           SKY/WX    TMP DP  RH WIND       PRES   REMARKS
ALGONA *       SUNNY     88  70  55 S22G30    29.87S HX  92
CLARION *      SUNNY     88  72  58 S17G24    29.91S HX  94
ESTHERVILLE    SUNNY     83  71  67 S18G28    29.84S HX  87
FORT DODGE *   SUNNY     88  71  57 S14G20    29.89F HX  94
MASON CITY     SUNNY     86  69  56 S17G25    29.92F HX  90
FOREST CITY *    N/A     84  70  61 S14G22    29.90S HX  88
WEBSTER CITY * SUNNY     86  70  58 S16G23    29.89S HX  90
IOWA FALLS *     N/A     86  70  59 S17G23    29.95F HX  90
$$

IAZ007>011-017>019-026>030-037>042-050>054-066-221800-
   NORTHEAST IOWA

CITY           SKY/WX    TMP DP  RH WIND       PRES   REMARKS
CEDAR RAPIDS   SUNNY     88  69  53 S16G24    29.99F HX  92
CHARLES CITY * SUNNY     88  70  55 S15       29.95F HX  92
CLINTON *      SUNNY    N/A N/A N/A S13G18    30.04F
DECORAH *      SUNNY     86  70  58 S9G23     29.96F HX  90
DUBUQUE        SUNNY     84  70  62 S12       30.03F HX  88
MONTICELLO *   SUNNY     90  70  51 S16G23    30.01S HX  95
OELWEIN *      SUNNY     90  70  51 S17G26    29.98F HX  95
WATERLOO       SUNNY     88  68  51 S18G24    29.95F HX  91
$$

IAZ064-065-067-068-078-221800-
   EAST CENTRAL IOWA

CITY           SKY/WX    TMP DP  RH WIND       PRES   REMARKS
DAVENPORT      SUNNY     87  70  56 S12G17    30.05F HX  92
IOWA CITY      SUNNY     90  70  51 S14G20    30.01F HX  95
MUSCATINE *    SUNNY     88  70  55 SW14      30.01F HX  92
QUAD CITIES    SUNNY     89  69  51 S12       30.02F HX  93
$$

IAZ062-063-075>077-085>089-095>099-221800-
   SOUTHEAST IOWA

CITY           SKY/WX    TMP DP  RH WIND       PRES   REMARKS
BURLINGTON     SUNNY     88  71  57 S10       30.03F HX  94
FAIRFIELD *    SUNNY     88  70  55 S12G20    30.01S HX  92
FORT MADISON * SUNNY     90  72  55 S10       30.04F HX  96
KEOKUK *       SUNNY     88  70  55 SW14G20   30.02F HX  92
OSKALOOSA *      N/A     87  70  56 S13       30.00S HX  92
OTTUMWA        SUNNY     88  70  55 S15       30.00S HX  93
WASHINGTON *   SUNNY     88  72  58 SW12G18   30.02F HX  94
$$

ABBREVIATIONS USED IN REMARKS
   TC - TEMPERATURES IN CELSIUS
  WCI - WIND CHILL INDEX
   HX - HEAT INDEX
  VSB - VISIBILITY
$$





USA.gov is the U.S. government's official web portal to all federal, state and local government web resources and services.